Weather History for KVAY - February, 2013

Change the Weather History Date:

Saturday, February 2, 2013

  Actual Average (KWRI) Record (KWRI)
Temperature  
Mean Temperature 23 °F -  
Max Temperature 28 °F 40 °F 57 °F (2006)
Min Temperature 18 °F 23 °F 10 °F (2005)
Degree Days  
Heating Degree Days 42    
Moisture  
Dew Point 12 °F    
Average Humidity 61    
Maximum Humidity 92    
Minimum Humidity 35    
Precipitation  
Precipitation 0.00 in - - ()
Sea Level Pressure  
Sea Level Pressure 30.19 in    
Wind  
Wind Speed 6 mph (WSW)    
Max Wind Speed 15 mph    
Max Gust Speed 21 mph    
Visibility 7 miles    
Events Snow    
Averages and records for this station are not official NWS values.
T = Trace of Precipitation, MM = Missing Value Source: NWS Daily Summary

Daily Weather History Graph

Daily Weather History Graph

Search for Another Location

Airport or City:

Trip Planner

Search our weather history database for the weather conditions in past years. The results will help you decide how hot, cold, wet, or windy it might be!

Date:

Astronomy

Feb. 02, 2013 Rise Set
Actual Time 7:06 AM EST 5:20 PM EST
Civil Twilight 6:38 AM EST 5:48 PM EST
Nautical Twilight 6:05 AM EST 6:21 PM EST
Astronomical Twilight 5:34 AM EST 6:52 PM EST
Moon No Moon Rise 10:15 AM EST (2/2)
Length of Visible Light 11h 10m
Length of Day
10h 13m
Waning Gibbous, 60% of the Moon is Illuminated
Feb 2
Waning Gibbous
Feb 3
Last Quarter
Feb 10
New
Feb 17
First Quarter
Feb 25
Full

Hourly Weather History & Observations

Time (EST) Temp. Windchill Dew Point Humidity Pressure Visibility Wind Dir Wind Speed Gust Speed Precip Events Conditions
12:54 AM 21.9 °F 12.5 °F 5.0 °F 48% 30.30 in 10.0 mi WNW 8.1 mph - N/A   Clear
1:54 AM 21.0 °F 11.4 °F 5.0 °F 50% 30.33 in 10.0 mi West 8.1 mph 17.3 mph N/A   Clear
2:54 AM 21.0 °F 10.6 °F 5.0 °F 50% 30.34 in 10.0 mi West 9.2 mph - N/A   Clear
3:54 AM 19.9 °F 12.1 °F 3.9 °F 50% 30.33 in 10.0 mi WNW 5.8 mph - N/A   Clear
4:54 AM 19.0 °F 10.0 °F 3.9 °F 52% 30.32 in 10.0 mi NW 6.9 mph - N/A   Clear
5:54 AM 19.0 °F - 3.9 °F 52% 30.33 in 10.0 mi Calm Calm - N/A   Clear
6:54 AM 18.0 °F 12.7 °F 3.9 °F 54% 30.34 in 10.0 mi West 3.5 mph - N/A   Clear
7:54 AM 19.0 °F 12.3 °F 3.9 °F 52% 30.34 in 10.0 mi West 4.6 mph - N/A   Clear
8:54 AM 21.0 °F 12.4 °F 3.0 °F 46% 30.34 in 10.0 mi Variable 6.9 mph - N/A   Clear
9:54 AM 21.9 °F 14.5 °F 3.9 °F 46% 30.32 in 10.0 mi Variable 5.8 mph - N/A   Clear
10:54 AM 25.0 °F 16.3 °F 5.0 °F 43% 30.30 in 10.0 mi SW 8.1 mph - N/A   Clear
11:54 AM 27.0 °F 18.0 °F 5.0 °F 39% 30.27 in 10.0 mi SSW 9.2 mph 20.7 mph N/A   Clear
12:54 PM 27.0 °F 16.7 °F 5.0 °F 39% 30.23 in 10.0 mi WSW 11.5 mph - N/A   Clear
1:54 PM 28.9 °F 20.4 °F 3.9 °F 35% 30.19 in 10.0 mi SW 9.2 mph 17.3 mph N/A   Clear
2:54 PM 28.9 °F 17.7 °F 7.0 °F 40% 30.17 in 10.0 mi SW 15.0 mph 18.4 mph N/A   Clear
3:54 PM 28.9 °F 21.1 °F 6.1 °F 38% 30.15 in 10.0 mi SW 8.1 mph - N/A   Mostly Cloudy
4:54 PM 28.0 °F 20.8 °F 6.1 °F 39% 30.14 in 10.0 mi SW 6.9 mph - N/A   Partly Cloudy
5:54 PM 28.0 °F 20.8 °F 8.1 °F 43% 30.12 in 10.0 mi SSW 6.9 mph - N/A   Overcast
6:54 PM 28.0 °F 20.8 °F 10.9 °F 49% 30.12 in 10.0 mi SSW 6.9 mph - N/A   Overcast
7:54 PM 27.0 °F 19.5 °F 15.1 °F 61% 30.12 in 10.0 mi WSW 6.9 mph - N/A   Overcast
8:42 PM 26.6 °F - 19.4 °F 74% 30.11 in 2.0 mi Calm Calm - 0.00 in Snow Light Snow
8:54 PM 26.1 °F 21.9 °F 19.9 °F 78% 30.12 in 3.0 mi SW 3.5 mph - 0.00 in Snow Light Snow
9:04 PM 24.8 °F 19.1 °F 19.4 °F 80% 30.11 in 2.0 mi SSW 4.6 mph - 0.00 in Snow Light Snow
9:14 PM 24.8 °F 20.5 °F 21.2 °F 86% 30.11 in 1.8 mi SSW 3.5 mph - 0.00 in Snow Light Snow
9:38 PM 24.8 °F - 21.2 °F 86% 30.11 in 2.0 mi Calm Calm - 0.00 in Snow Light Snow
9:54 PM 25.0 °F - 21.9 °F 88% 30.10 in 2.0 mi Calm Calm - 0.00 in Snow Light Snow
10:33 PM 24.8 °F - 21.2 °F 86% 30.08 in 4.0 mi Calm Calm - 0.00 in Snow Light Snow
10:52 PM 24.8 °F - 21.2 °F 86% 30.08 in 2.0 mi Calm Calm - 0.00 in Snow Light Snow
10:54 PM 25.0 °F - 21.9 °F 88% 30.08 in 2.0 mi Calm Calm - 0.00 in Snow Light Snow
11:20 PM 24.8 °F - 21.2 °F 86% 30.07 in 1.8 mi Calm Calm - 0.00 in Snow Light Snow
11:26 PM 24.8 °F - 21.2 °F 86% 30.06 in 2.0 mi Calm Calm - 0.00 in Snow Light Snow
11:38 PM 24.8 °F - 21.2 °F 86% 30.06 in 2.5 mi Calm Calm - 0.00 in Snow Light Snow
11:54 PM 25.0 °F - 23.0 °F 92% 30.06 in 2.5 mi Calm Calm - 0.00 in Snow Light Snow